Weather History for Worland, WY

Change the Weather History Date:

Friday, August 2, 2013

  Actual Average Record
Temperature  
Mean Temperature 73 °F 73 °F  
Max Temperature 90 °F 90 °F 100 °F (1961)
Min Temperature 55 °F 55 °F 49 °F (2006)
Degree Days  
Heating Degree Days 0 0  
Month to date heating degree days 0 0  
Since 1 June heating degree days 45 106  
Since 1 July heating degree days 0 13  
Cooling Degree Days 8 8  
Month to date cooling degree days 20 16  
Year to date cooling degree days 503 341  
Since 1 June cooling degree days 486 329  
Growing Degree Days 24 (Base 50)    
Moisture  
Dew Point 48 °F    
Average Humidity 46    
Maximum Humidity 80    
Minimum Humidity 12    
Precipitation  
Precipitation T in 0.02 in 0.90 in (1976)
Month to date precipitation T 0.04  
Year to date precipitation 3.08 5.06  
Sea Level Pressure  
Sea Level Pressure 29.84 in    
Wind  
Wind Speed 5 mph (NNW)    
Max Wind Speed 17 mph    
Max Gust Speed 23 mph    
Visibility 10 miles    
Events Rain , Thunderstorm    
T = Trace of Precipitation, MM = Missing Value Source: NWS Daily Summary

Daily Weather History Graph

Daily Weather History Graph

Search for Another Location

Airport:

Trip Planner

Search our weather history database for the weather conditions in past years. The results will help you decide how hot, cold, wet, or windy it might be!

Date:

Astronomy

Aug. 02, 2013 Rise Set
Actual Time 6:01 AM MDT 8:33 PM MDT
Civil Twilight 5:28 AM MDT 9:06 PM MDT
Nautical Twilight 4:47 AM MDT 9:47 PM MDT
Astronomical Twilight 4:01 AM MDT 10:33 PM MDT
Moon 2:23 AM MDT (8/2) 5:35 PM MDT (8/2)
Length of Visible Light 15h 37m
Length of Day
14h 32m
Waning Crescent, 15% of the Moon is Illuminated
Aug 2
Waning Crescent
Aug 6
New
Aug 14
First Quarter
Aug 20
Full
Aug 28
Last Quarter

Hourly Weather History & Observations

Time (MDT) Temp. Dew Point Humidity Pressure Visibility Wind Dir Wind Speed Gust Speed Precip Events Conditions
12:53 AM 69.1 °F 51.1 °F 53% 29.73 in 10.0 mi NNW 11.5 mph - N/A   Clear
1:53 AM 66.9 °F 51.1 °F 57% 29.78 in 10.0 mi NW 5.8 mph - N/A   Clear
2:33 AM 66.2 °F 51.8 °F 60% 29.97 in 10.0 mi West 13.8 mph - N/A Thunderstorm Clear
2:48 AM 66.2 °F 51.8 °F 60% 29.96 in 10.0 mi NW 13.8 mph 19.6 mph 0.00 in Rain Light Rain
2:53 AM 64.9 °F 52.0 °F 63% 29.79 in 10.0 mi NW 13.8 mph - 0.00 in Rain Light Rain
3:43 AM 60.8 °F 53.6 °F 77% 29.97 in 10.0 mi West 3.5 mph - 0.00 in   Clear
3:53 AM 62.1 °F 54.0 °F 75% 29.82 in 10.0 mi Calm Calm - 0.00 in   Clear
4:53 AM 59.0 °F 53.1 °F 81% 29.82 in 10.0 mi Calm Calm - N/A   Clear
5:53 AM 57.9 °F 52.0 °F 81% 29.84 in 10.0 mi Calm Calm - N/A   Clear
6:53 AM 57.9 °F 52.0 °F 81% 29.85 in 10.0 mi Calm Calm - N/A   Clear
7:53 AM 63.0 °F 54.0 °F 72% 29.86 in 10.0 mi Calm Calm - N/A   Clear
8:53 AM 66.0 °F 54.0 °F 65% 29.86 in 10.0 mi Calm Calm - N/A   Clear
9:53 AM 70.0 °F 54.0 °F 57% 29.85 in 10.0 mi NE 3.5 mph - N/A   Clear
10:53 AM 72.0 °F 54.0 °F 53% 29.86 in 10.0 mi North 8.1 mph - N/A   Clear
11:53 AM 75.0 °F 54.0 °F 48% 29.86 in 10.0 mi North 8.1 mph - N/A   Clear
12:53 PM 78.1 °F 53.1 °F 42% 29.84 in 10.0 mi Variable 6.9 mph - N/A   Clear
1:53 PM 82.9 °F 48.9 °F 31% 29.82 in 10.0 mi North 6.9 mph - N/A   Clear
2:53 PM 87.1 °F 44.1 °F 22% 29.80 in 10.0 mi Variable 6.9 mph - N/A   Clear
3:53 PM 89.1 °F 34.0 °F 14% 29.78 in 10.0 mi Variable 6.9 mph - N/A   Clear
4:53 PM 90.0 °F 33.1 °F 13% 29.77 in 10.0 mi WNW 6.9 mph - N/A   Clear
5:53 PM 89.1 °F 30.9 °F 12% 29.76 in 10.0 mi NW 5.8 mph - N/A   Clear
6:53 PM 88.0 °F 33.1 °F 14% 29.77 in 10.0 mi North 6.9 mph - N/A   Clear
7:53 PM 82.9 °F 37.0 °F 19% 29.78 in 10.0 mi NNE 6.9 mph - N/A   Clear
8:53 PM 72.0 °F 43.0 °F 35% 29.82 in 10.0 mi NE 5.8 mph - N/A   Clear
9:53 PM 73.0 °F 45.0 °F 37% 29.87 in 10.0 mi ENE 13.8 mph 23.0 mph N/A   Clear
10:53 PM 72.0 °F 48.9 °F 44% 29.89 in 10.0 mi North 5.8 mph - N/A   Clear
11:53 PM 70.0 °F 51.1 °F 51% 29.91 in 10.0 mi NNW 4.6 mph - N/A   Clear